sat.trackr.live / text

‹ back to catalog

STARLINK-2588

NORAD 48398 · 2021-038AX

PAYLOAD ACTIVE UNKNOWN

§ Identity

Operator
Country
US
Launch date
2021-05-04
Launch site
AFETR
Launch vehicle
Mass (kg)
RCS (m²)

Purposes: comms

External: N2YO · Heavens-Above · Gunter

§ Orbital elements

Epoch: 2026-09-20T01:18:59.035680Z

Period
94.39 min
Inclination
53.0462°
Eccentricity
0.0004741
Mean motion
15.25628962 rev/d
Perigee alt
485.6 km
Apogee alt
492.2 km
Semi-major
6,867.0 km
B*
1.0436e-3
RAAN
167.5000°
Arg perigee
36.2283°
Mean anomaly
323.9034°
Rev number
29,813

§ Raw data

STARLINK-25881 48398U 21038AX  26263.05484995  .00026648  00000+0  10436-2 0  99902 48398  53.0462 167.5000 0004741  36.2283 323.9034 15.25628962298136

JSON: /api/v1/satellites/48398 · /tle

For live sub-satellite position, see the globe view (requires WebGL).

§ Visibility from observer

Set your observer location to see the next 7 days of passes ≥ 10°. The values pass through the URL so the page stays shareable.

No JS? Fill the form by hand. The geolocation button needs JavaScript.